Simultaneous Nadir Overpasses (SNOs) Predictions

Prediction of SNOs between GOES-15 and TERRA Satellite Orbit:

Table of predicted SNOs for the next 14.0 days since TLE Epoch: 12/15/2012
Index Date Time (GOES-15) GOES-15 Lat,Lon TERRA Lat,Lon Distance(km) Time Diff (sec)
1 12/15/2012 19:24:49 -0.08,-135.46 -0.37,-134.12 152.57 80
2 12/16/2012 07:48:53 0.06,-135.43 -0.74,-139.31 440.44 80
3 12/17/2012 19:12:37 -0.08,-135.48 -0.98,-131.16 490.74 80
4 12/18/2012 07:36:41 0.06,-135.45 -0.13,-136.35 102.40 80
5 12/20/2012 07:21:49 0.06,-135.46 0.49,-133.39 235.33 80
6 12/20/2012 19:45:44 -0.04,-135.49 0.63,-138.54 346.82 80
7 12/22/2012 19:30:53 -0.05,-135.50 -0.05,-135.59 9.83 80
8 12/24/2012 19:18:41 -0.06,-135.50 -0.69,-132.63 327.16 80
9 12/25/2012 07:42:43
